Location: DARK SKY Beskydy - Park tmavé oblohy, www.darkskybeskydy.cz
(49.4926°N, 18.5016°E)
Time: 15:00:41
(UTC+02:00)

ISS - Visible Passes

Search period start: 18 June 2024 00:00
Search period end: 28 June 2024 00:00
Orbit: 411 x 425 km, 51.6° (Epoch: 18 June)

Date Brightness Start Highest point End Pass type
(mag) Time Alt. Az. Time Alt. Az. Time Alt. Az.
23 Jun -1.2 03:50:22 10° SSE 03:51:37 12° SE 03:52:52 10° ESE visible
25 Jun -2.3 03:49:01 10° SSW 03:51:49 25° SE 03:54:38 10° E visible
26 Jun -1.8 03:02:15 13° S 03:03:51 17° SE 03:06:08 10° E visible
27 Jun -1.4 02:15:46 11° SE 02:15:55 11° SE 02:16:59 10° ESE visible
27 Jun -3.4 03:48:49 10° SW 03:52:03 52° SSE 03:55:20 10° ENE visible
